Location: Unspecified
(0.0000°N, 0.0000°E)
Time: 15:15:31
(UTC+00:00)

Altair - Pass Details

Date: 20 March 2026
Orbit: 1502 x 1682 km, 47.2° (Epoch: 18 April)

Event Time Altitude Azimuth Distance (km) Brightness Sun altitude
Rises 05:00:11 0° 322° (NW) 4,642 9.7 -16.8°
Reaches altitude 10° 05:03:10 10° 323° (NW) 3,675 9.1 -16.1°
Maximum altitude 05:12:28 82° 51° (NE) 1,569 7.6 -13.8°
Drops below altitude 10° 05:22:10 10° 138° (SE) 3,818 10.2 -11.3°
Sets 05:25:19 0° 138° (SE) 4,829 10.8 -10.6°
